IT9RID Weather Reports


time (UTC)temp
C
wind
direction
speed
KPH
gust
KPH
rain 1hr
cm
rain 24hr
cm
rain mn
cm
humidity
%
barometer
mb
20260906093057 30 332 4.8 6.4 0.00 0.00 0.00 56 1019.5
20260906092057 29 355 3.2 9.7 0.00 0.00 0.00 59 1019.6
20260906091057 29 14 1.6 9.7 0.00 0.00 0.00 61 1019.7
20260906090057 29 317 4.8 4.8 0.00 0.00 0.00 62 1019.6
20260906085057 29 355 0.0 6.4 0.00 0.00 0.00 63 1019.6
20260906084057 29 9 0.0 4.8 0.00 0.00 0.00 65 1019.6
20260906083056 29 292 4.8 4.8 0.00 0.00 0.00 65 1019.7
20260906082056 28 290 0.0 4.8 0.00 0.00 0.00 66 1019.6
20260906081056 28 360 4.8 6.4 0.00 0.00 0.00 63 1019.5
20260906080056 28 213 1.6 3.2 0.00 0.00 0.00 61 1019.5
20260906075056 28 302 0.0 0.0 0.00 0.00 0.00 62 1019.5
20260906074057 27 311 0.0 0.0 0.00 0.00 0.00 66 1019.4
20260906073055 28 243 0.0 0.0 0.00 0.00 0.00 69 1019.4
20260906072055 27 242 0.0 0.0 0.00 0.00 0.00 70 1019.4
20260906071056 27 237 0.0 0.0 0.00 0.00 0.00 68 1019.4
20260906070055 27 238 0.0 0.0 0.00 0.00 0.00 65 1019.4
20260906065055 26 232 0.0 4.8 0.00 0.00 0.00 63 1019.2
20260906064055 26 222 0.0 0.0 0.00 0.00 0.00 62 1019.2
20260906063054 25 221 0.0 1.6 0.00 0.00 0.00 61 1019.2
20260906062054 25 217 0.0 0.0 0.00 0.00 0.00 61 1019.2
20260906061054 24 217 0.0 4.8 0.00 0.00 0.00 61 1019.2
20260906060054 23 214 0.0 0.0 0.00 0.00 0.00 62 1019.2
20260906055054 23 214 0.0 0.0 0.00 0.00 0.00 63 1019.1
20260906054054 23 214 0.0 0.0 0.00 0.00 0.00 63 1019.0
20260906053054 23 214 0.0 0.0 0.00 0.00 0.00 65 1019.0
20260906052054 22 214 0.0 0.0 0.00 0.00 0.00 65 1018.9
20260906051053 22 214 0.0 0.0 0.00 0.00 0.00 65 1018.9
20260906050053 22 214 0.0 0.0 0.00 0.00 0.00 64 1018.9
20260906045053 22 205 0.0 0.0 0.00 0.00 0.00 62 1018.9
20260906044053 22 204 0.0 0.0 0.00 0.00 0.00 62 1018.8
20260906043053 22 199 0.0 4.8 0.00 0.00 0.00 62 1018.8
20260906042052 22 207 0.0 3.2 0.00 0.00 0.00 62 1018.9
20260906041053 22 205 0.0 0.0 0.00 0.00 0.00 62 1018.7
20260906040052 22 210 0.0 0.0 0.00 0.00 0.00 61 1018.6
20260906035052 22 203 0.0 0.0 0.00 0.00 0.00 61 1018.5
20260906034052 22 209 0.0 0.0 0.00 0.00 0.00 61 1018.4
20260906033052 22 213 0.0 0.0 0.00 0.00 0.00 61 1018.3
20260906032052 22 207 0.0 0.0 0.00 0.00 0.00 61 1018.3
20260906031051 22 209 0.0 0.0 0.00 0.00 0.00 60 1018.3
20260906030051 23 210 0.0 4.8 0.00 0.00 0.00 61 1018.3
20260906025051 23 208 0.0 0.0 0.00 0.00 0.00 60 1018.3
20260906024051 23 200 0.0 4.8 0.00 0.00 0.00 60 1018.4
20260906023051 23 207 0.0 0.0 0.00 0.00 0.00 60 1018.5
20260906022051 23 214 0.0 6.4 0.00 0.00 0.00 61 1018.5
20260906021050 23 211 1.6 1.6 0.00 0.00 0.00 62 1018.5
20260906020050 23 207 0.0 0.0 0.00 0.00 0.00 64 1018.5
20260906015050 23 205 0.0 0.0 0.00 0.00 0.00 64 1018.5
20260906014053 23 192 1.6 3.2 0.00 0.00 0.00 64 1018.5
20260906013050 23 165 3.2 4.8 0.00 0.00 0.00 65 1018.5
20260906012050 23 189 0.0 4.8 0.00 0.00 0.00 66 1018.4
20260906011049 23 213 0.0 3.2 0.00 0.00 0.00 67 1018.5
20260906010049 23 155 1.6 4.8 0.00 0.00 0.00 68 1018.4
20260906005049 23 157 0.0 4.8 0.00 0.00 0.00 69 1018.4
20260906004049 23 161 0.0 0.0 0.00 0.00 0.00 69 1018.5
20260906003049 23 190 0.0 0.0 0.00 0.00 0.00 70 1018.5
20260906002049 23 188 0.0 0.0 0.00 0.00 0.00 70 1018.5
20260906001049 24 190 0.0 0.0 0.00 0.00 0.00 71 1018.5
20260906000048 24 182 0.0 3.2 0.00 0.00 0.00 71 1018.6
20260905235108 23 207 0.0 0.0 0.00 0.00 0.00 72 1018.8
20260905234048 24 207 0.0 0.0 0.00 0.00 0.00 73 1018.8
20260905233048 24 201 0.0 0.0 0.00 0.00 0.00 74 1018.8
20260905232048 24 200 0.0 0.0 0.00 0.00 0.00 74 1018.9
20260905231048 24 200 0.0 0.0 0.00 0.00 0.00 74 1018.8
20260905230047 24 198 0.0 0.0 0.00 0.00 0.00 75 1018.8
20260905225049 25 198 0.0 0.0 0.00 0.00 0.00 75 1018.8
20260905224047 25 196 0.0 0.0 0.00 0.00 0.00 74 1018.9
20260905223047 25 196 0.0 0.0 0.00 0.00 0.00 75 1018.9
20260905222047 25 195 0.0 0.0 0.00 0.00 0.00 75 1018.9
20260905221047 25 195 0.0 0.0 0.00 0.00 0.00 74 1018.8
20260905220048 25 195 0.0 0.0 0.00 0.00 0.00 74 1018.9
20260905215046 25 195 0.0 0.0 0.00 0.00 0.00 74 1018.9
20260905214046 25 195 0.0 0.0 0.00 0.00 0.00 74 1019.0
20260905213046 25 195 0.0 0.0 0.00 0.00 0.00 74 1019.0
20260905212046 25 186 0.0 0.0 0.00 0.00 0.00 73 1018.9
20260905211046 25 184 0.0 0.0 0.00 0.00 0.00 73 1018.9
20260905210046 25 184 0.0 0.0 0.00 0.00 0.00 73 1019.0
20260905205045 26 184 0.0 0.0 0.00 0.00 0.00 73 1018.9
20260905204046 25 185 0.0 0.0 0.00 0.00 0.00 73 1018.9
20260905203045 25 179 0.0 3.2 0.00 0.00 0.00 72 1019.0
20260905202048 25 157 0.0 0.0 0.00 0.00 0.00 71 1019.0
20260905201045 26 157 0.0 0.0 0.00 0.00 0.00 71 1019.0
20260905200045 26 149 0.0 0.0 0.00 0.00 0.00 70 1018.9
20260905195044 26 171 0.0 0.0 0.00 0.00 0.00 71 1019.1
20260905194044 26 171 0.0 0.0 0.00 0.00 0.00 71 1019.1
20260905193104 26 171 0.0 0.0 0.00 0.00 0.00 71 1019.1
20260905192044 26 171 0.0 0.0 0.00 0.00 0.00 70 1018.9
20260905191044 27 171 0.0 0.0 0.00 0.00 0.00 70 1018.8
20260905190044 27 298 0.0 0.0 0.00 0.00 0.00 71 1018.7
20260905185043 27 298 0.0 0.0 0.00 0.00 0.00 71 1018.6
20260905184043 27 298 0.0 0.0 0.00 0.00 0.00 70 1018.5
20260905183043 27 298 0.0 0.0 0.00 0.00 0.00 70 1018.5
20260905182043 27 298 0.0 0.0 0.00 0.00 0.00 70 1018.3
20260905181103 27 298 0.0 0.0 0.00 0.00 0.00 69 1018.2
20260905180043 28 298 0.0 0.0 0.00 0.00 0.00 69 1018.1
20260905175043 28 298 0.0 0.0 0.00 0.00 0.00 69 1018.1
20260905174042 28 298 0.0 0.0 0.00 0.00 0.00 68 1018.1
20260905173042 28 298 0.0 0.0 0.00 0.00 0.00 68 1018.0
20260905172042 28 298 0.0 0.0 0.00 0.00 0.00 67 1018.0
20260905171042 28 311 0.0 0.0 0.00 0.00 0.00 66 1018.0
20260905170042 28 315 0.0 4.8 0.00 0.00 0.00 66 1018.0
20260905165042 29 333 0.0 0.0 0.00 0.00 0.00 64 1017.9
20260905164102 30 319 0.0 4.8 0.00 0.00 0.00 61 1017.9
20260905163041 30 305 0.0 8.0 0.00 0.00 0.00 63 1018.0
20260905162041 30 351 0.0 4.8 0.00 0.00 0.00 62 1018.0
20260905161046 29 355 8.0 11.3 0.00 0.00 0.00 62 1018.1
20260905160041 30 342 4.8 9.7 0.00 0.00 0.00 62 1018.1
20260905155041 30 326 3.2 8.0 0.00 0.00 0.00 63 1018.0
20260905154040 30 348 3.2 11.3 0.00 0.00 0.00 61 1018.0
20260905153041 30 15 6.4 8.0 0.00 0.00 0.00 61 1018.0
20260905152040 30 327 1.6 9.7 0.00 0.00 0.00 59 1018.0
20260905151040 30 331 3.2 12.9 0.00 0.00 0.00 59 1017.9
20260905150040 30 271 0.0 11.3 0.00 0.00 0.00 57 1018.0
20260905145040 31 295 3.2 4.8 0.00 0.00 0.00 53 1017.9
20260905144040 31 355 4.8 4.8 0.00 0.00 0.00 52 1017.9
20260905143039 31 22 1.6 9.7 0.00 0.00 0.00 48 1017.9
20260905142039 31 300 0.0 9.7 0.00 0.00 0.00 44 1018.0
20260905141039 31 342 3.2 4.8 0.00 0.00 0.00 43 1018.0
20260905140039 31 306 0.0 6.4 0.00 0.00 0.00 49 1018.1
20260905135039 31 242 4.8 6.4 0.00 0.00 0.00 50 1018.0
20260905134039 31 242 0.0 4.8 0.00 0.00 0.00 51 1018.1
20260905133038 31 344 3.2 8.0 0.00 0.00 0.00 53 1018.2
20260905132038 30 265 6.4 8.0 0.00 0.00 0.00 58 1018.3
20260905131038 31 317 8.0 9.7 0.00 0.00 0.00 54 1018.3
20260905130038 31 241 0.0 4.8 0.00 0.00 0.00 57 1018.4
20260905125038 31 316 0.0 12.9 0.00 0.00 0.00 54 1018.6
20260905124038 31 302 4.8 4.8 0.00 0.00 0.00 57 1018.6
20260905123038 31 289 0.0 4.8 0.00 0.00 0.00 55 1018.6
20260905122038 30 315 4.8 4.8 0.00 0.00 0.00 61 1018.5
20260905121037 30 333 6.4 6.4 0.00 0.00 0.00 59 1018.6
20260905120037 30 15 0.0 9.7 0.00 0.00 0.00 61 1018.7
20260905115037 30 360 4.8 8.0 0.00 0.00 0.00 61 1018.8
20260905114037 31 305 3.2 4.8 0.00 0.00 0.00 57 1018.9
20260905113037 30 243 0.0 6.4 0.00 0.00 0.00 58 1018.9
20260905112057 30 284 0.0 4.8 0.00 0.00 0.00 59 1018.9
20260905111036 30 342 9.7 9.7 0.00 0.00 0.00 58 1019.0
20260905110040 30 267 0.0 6.4 0.00 0.00 0.00 61 1018.9
20260905105036 30 271 0.0 8.0 0.00 0.00 0.00 60 1018.9
20260905104036 30 5 4.8 11.3 0.00 0.00 0.00 60 1018.8
20260905103036 30 325 1.6 11.3 0.00 0.00 0.00 62 1018.9
20260905102036 30 311 8.0 8.0 0.00 0.00 0.00 58 1018.8
20260905101036 30 294 4.8 4.8 0.00 0.00 0.00 57 1018.9
20260905100037 30 260 3.2 8.0 0.00 0.00 0.00 58 1018.8
20260905095035 30 339 4.8 9.7 0.00 0.00 0.00 56 1018.8
20260905094035 30 226 0.0 6.4 0.00 0.00 0.00 54 1018.9